Regional Weather Roundup
Issued by NWS

Home | Current Version | Previous Version | Text Only | Print | Product List | Glossary On
Versions: 1 2 3 4 5 6 7 8 9 10 11 12 13 14 15 16 17 18 19 20 21 22 23 24 25 26 27 28 29 30 31 32 33 34 35 36 37 38 39 40 41 42 43 44 45 46 47 48 49 50
000
ASUS45 KBOU 310410
RWRCO

WEATHER ROUNDUP FOR COLORADO
NATIONAL WEATHER SERVICE DENVER/BOULDER CO
1000 PM MDT THU JUL 30 2015

NOTE: "FAIR" INDICATES FEW OR NO CLOUDS BELOW 12000 FEET WITH NO
SIGNIFICANT WEATHER AND/OR OBSTRUCTIONS TO VISIBILITY.

COZ001>005-013-030-031-310500-
...NORTHWEST COLORADO...

CITY           SKY/WX    TMP DP  RH WIND       PRES   REMARKS
CRAIG          PTCLDY    62  29  28 CALM      30.34R
HAYDEN         PTCLDY    63  27  25 SE3       30.36R
MEEKER         PTCLDY    62  35  36 NE6       30.35R
MOUNT WERNER   NOT AVBL
STEAMBOAT SPGS PTCLDY    59  35  39 CALM      30.39R
WALDEN         CLEAR     59  34  38 SW3       30.51R
$$

COZ006>008-011-310500-
...WEST CENTRAL VALLEYS...

CITY           SKY/WX    TMP DP  RH WIND       PRES   REMARKS
GRAND JUNCTION PTCLDY    81  24  12 N10       30.17R
MONTROSE       PTCLDY    72  42  34 SE7       30.28R
EAGLE          CLEAR     70  32  24 E6        30.37R
RIFLE          PTCLDY    72  27  18 S6        30.25R
DELTA          PTCLDY    76  29  17 NE7       30.22R
NUCLA          PTCLDY    77  34  20 S7        30.32R
$$

COZ017>023-064>068-310500-
...SOUTHWEST COLORADO...

CITY           SKY/WX    TMP DP  RH WIND       PRES   REMARKS
DURANGO        CLOUDY    62  57  83 CALM      30.41R
CORTEZ         CLEAR     71  53  52 SW8       30.32S
PAGOSA SPRINGS CLOUDY    65  50  57 NE3       30.50R
TELLURIDE      MOCLDY    63  33  32 SE6       30.57R
WOLF CREEK PAS NOT AVBL
$$

COZ009-010-012-014-032>034-037-058>063-310500-
...CENTRAL COLORADO...

CITY           SKY/WX    TMP DP  RH WIND       PRES   REMARKS
ASPEN          PTCLDY    59  37  44 S8        30.45R
BUENA VISTA    PTCLDY    62  49  63 N3        30.53R
COPPER MTN     PTCLDY    55  34  44 S8        30.82R
BERTHOUD PASS  FAIR      45  34  65 E20G26    30.87R
COTTONWOOD PAS PTCLDY    61  43  51 E5        30.67R
GUNNISON       PTCLDY    70  45  40 E14       30.47R
KREMMLING      CLEAR     70  32  24 E5        30.46R
LEADVILLE      PTCLDY    57  44  62 SE6       30.64R
MONARCH PASS   PTCLDY    48  43  81 E21       30.90R
SALIDA         MOCLDY    70  49  47 E7        30.56R
SUNLIGHT       CLEAR     61  23  23 N6        30.72S
WILKERSON PASS PTCLDY    50  43  76 S7        30.81R
$$

COZ069>075-310500-
...SAN LUIS VALLEY/SANGRE DE CRISTO MOUNTAINS...

CITY           SKY/WX    TMP DP  RH WIND       PRES   REMARKS
ALAMOSA        MOCLDY    60  51  72 SE5       30.48R
LA VETA PASS   MOCLDY    52  46  82 MISG      30.69R
SAGUACHE       PTCLDY    61  50  67 E6        30.52R
$$

COZ035-036-038>040-310500-
...NORTHERN COLORADO FRONT RANGE...

CITY           SKY/WX    TMP DP  RH WIND       PRES   REMARKS
DENVER INTL AP PTCLDY    73  52  47 S12       30.31R
DMNS CITY PARK   N/A     76  51  42 SE9G15    30.31R
AURORA         PTCLDY    73  53  49 S18       30.34R
FRONT RANGE AP NOT AVBL
ERIE MUNI ARPT PTCLDY    75  55  49 E7        30.29R
BOULDER MUN AP PTCLDY    72  46  40 NW7       30.32R
CENTENNIAL     PTCLDY    72  53  51 S12       30.35R
BROOMFIELD     PTCLDY    75  48  38 N6        30.33R
FORT COLLINS   CLEAR     73  55  53 E14       30.31R
LONGMONT       CLEAR     75  57  52 N6        30.32R
$$

COZ041-046-047-076>085-087-088-310500-
...PIKES PEAK/PALMER DIVIDE AND SOUTHERN FOOTHILLS...

CITY           SKY/WX    TMP DP  RH WIND       PRES   REMARKS
COLO. SPRINGS  PTCLDY    65  53  65 CALM      30.43R
A. F. ACADEMY  CLEAR     65  52  63 CALM      30.44R
ELLICOTT       CLEAR    N/A N/A N/A SE5       30.41R
FALCON         CLEAR     61  51  70 W3        30.48R
FORT CARSON    CLEAR     70  54  56 W6        30.38R
LIMON          MOCLDY    63  60  90 E5        30.40R
MONUMENT HILL  PTCLDY    61  50  67 S10       30.46R
TRINIDAD       MOCLDY    68  57  68 W9        30.37R
$$

COZ042>045-048>051-090-091-310500-
...NORTHEAST COLORADO...

CITY           SKY/WX    TMP DP  RH WIND       PRES   REMARKS
GREELEY ARPT   CLEAR     70  57  64 SE13      30.30R
AKRON          CLEAR     69  55  60 S20G26    30.32R
BURLINGTON     CLOUDY    70  64  81 S8        30.28F
WRAY           PTCLDY    69  58  67 W8        30.25R
STERLING       CLEAR     68  55  64 SW5       30.26S
HOLYOKE        NOT AVBL
FORT MORGAN    CLEAR     68  54  60 S12       30.31R
$$

COZ086-089-092>099-310500-
...SOUTHEAST COLORADO...

CITY           SKY/WX    TMP DP  RH WIND       PRES   REMARKS
PUEBLO         PTCLDY    79  51  37 E7        30.29R
LA JUNTA       MOCLDY    77  60  55 SE9       30.28R
LAMAR          MOCLDY    70  65  84 E6        30.27R
SPRINGFIELD      N/A     69  64  84 E5        30.31R
$$



USA.gov is the U.S. government's official web portal to all federal, state and local government web resources and services.